[[{"header":{"parameterUnit":"m.s-1","parameterCategory":1,"la1":30.2992,"la2":30.254,"lo1":-89.0895,"lo2":-89.0443,"dy":0.0025,"dx":0.0025,"nx":19,"ny":19,"refTime":"2026-04-21T21:00:00:Z","depth":0,"parameterNumber":2,"parameterNumberName":"U-component_of_WINDS"},"data":[0,0,0,-3.645,-3.6452,-3.6521,-3.6521,-3.6632,-3.6633,0,0,0,0,0,0,0,0,0,0,0,-3.6445,-3.6446,-3.645,-3.6452,-3.6521,-3.6521,-3.6632,-3.6633,0,0,0,0,0,0,0,0,0,0,0,-3.6444,-3.6446,-3.6447,-3.6452,-3.6521,-3.6521,-3.6632,-3.6571,0,0,0,0,0,0,0,0,0,0,-3.65,-3.6511,-3.6445,-3.6448,-3.6453,-3.6521,-3.6521,-3.6568,-3.6575,-3.6611,0,-3.6649,0,-3.6643,-3.6642,-3.6643,0,0,0,-3.644,-3.6505,-3.651,-3.6448,-3.6454,-3.6521,-3.6486,-3.6571,-3.658,-3.6621,-3.665,-3.6654,-3.6645,-3.6643,-3.6644,-3.6896,-3.6898,0,0,-3.6436,-3.6465,-3.6504,-3.6516,-3.6508,-3.6484,-3.6489,-3.6576,-3.661,-3.6651,-3.6656,-3.6647,-3.6644,-3.6645,-3.6895,-3.6897,0,0,0,-3.6433,-3.6463,-3.6465,-3.6512,-3.6523,-3.6487,-3.6492,-3.6606,-3.6604,-3.6657,-3.6648,-3.6645,-3.6647,-3.6893,-3.6895,-3.7008,0,0,0,-3.643,-3.6461,-3.6464,-3.6483,-3.6522,-3.6565,-3.652,-3.6598,-3.6607,-3.6648,-3.6645,-3.6648,-3.6891,-3.6894,-3.7001,-3.7056,0,0,0,-3.6435,-3.6462,-3.6477,-3.6484,-3.6515,-3.6563,-3.6566,-3.6599,-3.6602,-3.6643,-3.6648,-3.6889,-3.6893,-3.6995,-3.7045,-3.713,0,0,0,-3.6448,-3.6577,-3.6479,-3.662,-3.6515,-3.6634,-3.6565,-3.6652,-3.6701,-3.6646,-3.6891,-3.6895,-3.6993,-3.7039,-3.7123,-3.7204,-3.7242,0,0,-3.6627,-3.66,-3.668,-3.6595,-3.6739,-3.6621,-3.6781,-3.6798,-3.6775,-3.6857,-3.6862,-3.7003,-3.7045,-3.7128,-3.7444,-3.7474,0,0,0,-3.6746,-3.6804,-3.6836,-3.6884,-3.6901,-3.6919,-3.6909,-3.6915,-3.6983,-3.6823,-3.7057,-3.708,-3.7128,-3.7165,-3.7191,-3.7229,-3.6914,-3.6914,-3.6913,-3.7039,-3.7004,-3.7133,-3.7106,-3.7154,-3.7142,-3.7177,-3.7182,-3.7132,-3.7188,-3.7212,-3.7408,-3.7453,-3.7472,-3.7512,-3.7254,-3.7254,-3.7254,-3.7255,-3.7296,-3.7371,-3.7302,-3.7403,-3.7365,-3.7449,-3.7442,-3.7404,-3.7475,-3.7387,-3.7428,-3.7333,-3.7506,-3.7539,-3.7263,-3.7262,-3.726,-3.726,-3.7259,-3.7481,-3.7511,-3.7517,-3.7583,-3.7638,-3.7605,-3.7677,-3.764,-3.7605,-3.7645,-3.7664,-3.7662,-3.7653,-3.7657,-3.7658,-3.7659,-3.7659,-3.766,-3.766,-3.7671,-3.7674,-3.774,-3.7769,-3.7794,-3.7823,-3.7813,-3.7837,-3.7853,-3.782,-3.782,-3.7763,-3.753,-3.7471,-3.7671,-3.7669,-3.7667,-3.7666,-3.7666,-3.7939,-3.7873,-3.7974,-3.8,-3.8031,-3.8086,-3.8038,-3.809,-3.8104,-3.8141,-3.8076,-3.7911,-3.788,-3.7859,-3.781,-3.8085,-3.8085,-3.8085,-3.8085,-3.8094,-3.8076,-3.817,-3.8214,-3.8253,-3.822,-3.8334,-3.8327,-3.8309,-3.8316,-3.8271,-3.8203,-3.8184,-3.8164,-3.8137,-3.809,-3.843,-3.8431,-3.8431,-3.8256,-3.824,-3.8345,-3.8328,-3.8349,-3.8367,-3.8473,-3.8524,-3.849,-3.8444,-3.8319,-3.8305,-3.8195,-3.8161,-3.8109,-3.8068,-3.7982,0,0]},{"header":{"parameterUnit":"m.s-1","parameterCategory":1,"la1":30.2992,"la2":30.254,"lo1":-89.0895,"lo2":-89.0443,"dy":0.0025,"dx":0.0025,"nx":19,"ny":19,"refTime":"2026-04-21T21:00:00:Z","depth":0,"parameterNumber":3,"parameterNumberName":"V-component_of_WINDS"},"data":[0,0,0,1.8401,1.8399,1.8306,1.8305,1.8232,1.8232,0,0,0,0,0,0,0,0,0,0,0,1.8458,1.8458,1.8401,1.8399,1.8306,1.8305,1.8233,1.8232,0,0,0,0,0,0,0,0,0,0,0,1.8457,1.8458,1.8459,1.8399,1.8306,1.8305,1.8233,1.8286,0,0,0,0,0,0,0,0,0,0,1.8369,1.845,1.8458,1.8459,1.8399,1.8306,1.8305,1.8288,1.8283,1.8295,0,1.8315,0,1.8273,1.8231,1.823,0,0,0,1.8377,1.8455,1.8403,1.8459,1.8398,1.8306,1.8341,1.8284,1.8279,1.8289,1.8314,1.831,1.8272,1.823,1.823,1.8381,1.8383,0,0,1.8382,1.8456,1.8408,1.8401,1.842,1.8345,1.8339,1.828,1.8312,1.8313,1.8307,1.8271,1.823,1.823,1.838,1.8382,0,0,0,1.8412,1.8461,1.8409,1.8406,1.8385,1.8343,1.8336,1.8314,1.8291,1.8306,1.827,1.823,1.823,1.8378,1.838,1.8541,0,0,0,1.8414,1.8478,1.8413,1.8458,1.8387,1.8349,1.8372,1.8296,1.8286,1.827,1.823,1.8229,1.8376,1.8379,1.8532,1.8604,0,0,0,1.8454,1.8482,1.8479,1.8462,1.8424,1.8348,1.8321,1.8292,1.8266,1.823,1.8229,1.8374,1.8378,1.8524,1.8591,1.8667,0,0,0,1.8517,1.8621,1.8483,1.8585,1.8426,1.8448,1.832,1.8333,1.8322,1.823,1.8376,1.838,1.8522,1.8583,1.8659,1.8744,1.8787,0,0,1.869,1.8645,1.8699,1.8572,1.8639,1.8457,1.8546,1.8464,1.8392,1.8389,1.8391,1.8535,1.859,1.8665,1.8998,1.9033,0,0,0,1.8779,1.8819,1.882,1.8815,1.8756,1.8712,1.8609,1.8579,1.8574,1.8406,1.858,1.861,1.8651,1.8689,1.8718,1.8749,1.8401,1.84,1.84,1.913,1.9034,1.9117,1.9011,1.9007,1.8901,1.8889,1.883,1.8732,1.8776,1.8774,1.8988,1.9035,1.9056,1.909,1.8811,1.8811,1.8812,1.8812,1.9374,1.9417,1.9287,1.9322,1.922,1.9248,1.9151,1.9081,1.9092,1.8981,1.9012,1.8899,1.9097,1.9121,1.8823,1.8821,1.882,1.8819,1.8818,1.9594,1.9597,1.9561,1.9543,1.9541,1.9429,1.9447,1.9352,1.9263,1.9294,1.9283,1.928,1.9266,1.9295,1.9296,1.9297,1.9297,1.9298,1.9298,1.9836,1.9789,1.9816,1.9766,1.975,1.9718,1.9615,1.9597,1.9553,1.9483,1.9482,1.9382,1.9134,1.9075,1.931,1.9307,1.9306,1.9305,1.9304,2.0121,2.0042,2.0084,2.007,2.0003,2.0008,1.9887,1.986,1.9831,1.9844,1.9736,1.9569,1.9515,1.9491,1.9441,1.9756,1.9756,1.9756,1.9756,2.0307,2.0271,2.0294,2.0277,2.0249,2.0146,2.0197,2.0119,2.0025,2.0001,1.9942,1.9867,1.9847,1.9805,1.9775,1.9726,2.0107,2.0107,2.0108,2.0477,2.0434,2.0496,2.0405,2.0346,2.0298,2.0344,2.033,2.0206,2.012,1.9981,1.9966,1.9845,1.981,1.9721,1.9675,1.9585,0,0]}]]